| time (UTC) | temp F | wind direction | speed MPH | gust MPH | rain 1hr in | rain 24hr in | rain mn in | humidity % | barometer mb |
| 20260503224022 | 74 | 352 | 6.0 | 12.0 | 0.00 | 0.00 | 0.00 | 25 | 1009.1 |
| 20260503223526 | 74 | 1 | 3.0 | 8.0 | 0.00 | 0.00 | 0.00 | 26 | 1009.1 |
| 20260503223049 | 74 | 360 | 1.0 | 6.0 | 0.00 | 0.00 | 0.00 | 27 | 1009.2 |
| 20260503222522 | 74 | 272 | 2.0 | 11.0 | 0.00 | 0.00 | 0.00 | 26 | 1009.3 |
| 20260503222022 | 74 | 350 | 4.0 | 11.0 | 0.00 | 0.00 | 0.00 | 27 | 1009.5 |
| 20260503221546 | 74 | 351 | 4.0 | 12.0 | 0.00 | 0.00 | 0.00 | 27 | 1009.4 |
| 20260503221023 | 73 | 333 | 2.0 | 12.0 | 0.00 | 0.00 | 0.00 | 27 | 1009.5 |
| 20260503220526 | 73 | 330 | 4.0 | 12.0 | 0.00 | 0.00 | 0.00 | 28 | 1009.7 |
| 20260503220039 | 73 | 317 | 8.0 | 14.0 | 0.00 | 0.00 | 0.00 | 26 | 1009.7 |
| 20260503215525 | 73 | 329 | 5.0 | 14.0 | 0.00 | 0.00 | 0.00 | 26 | 1009.8 |
| 20260503215025 | 74 | 338 | 5.0 | 11.0 | 0.00 | 0.00 | 0.00 | 28 | 1009.8 |
| 20260503214553 | 74 | 342 | 4.0 | 9.0 | 0.00 | 0.00 | 0.00 | 28 | 1010.0 |
| 20260503214026 | 73 | 278 | 4.0 | 11.0 | 0.00 | 0.00 | 0.00 | 28 | 1010.0 |
| 20260503213523 | 73 | 359 | 3.0 | 11.0 | 0.00 | 0.00 | 0.00 | 27 | 1010.1 |
| 20260503213040 | 73 | 337 | 4.0 | 10.0 | 0.00 | 0.00 | 0.00 | 27 | 1010.2 |
| 20260503212522 | 73 | 307 | 3.0 | 11.0 | 0.00 | 0.00 | 0.00 | 29 | 1010.3 |
| 20260503212023 | 73 | 324 | 6.0 | 11.0 | 0.00 | 0.00 | 0.00 | 29 | 1010.4 |
| 20260503211538 | 73 | 356 | 3.0 | 11.0 | 0.00 | 0.00 | 0.00 | 28 | 1010.6 |
| 20260503211022 | 73 | 211 | 5.0 | 11.0 | 0.00 | 0.00 | 0.00 | 28 | 1010.7 |
| 20260503210522 | 73 | 294 | 6.0 | 11.0 | 0.00 | 0.00 | 0.00 | 28 | 1010.7 |
| 20260503210038 | 72 | 242 | 4.0 | 13.0 | 0.00 | 0.00 | 0.00 | 29 | 1010.7 |
| 20260503205525 | 72 | 326 | 6.0 | 13.0 | 0.00 | 0.00 | 0.00 | 28 | 1010.9 |
| 20260503205026 | 72 | 339 | 6.0 | 14.0 | 0.00 | 0.00 | 0.00 | 29 | 1011.1 |
| 20260503204543 | 73 | 359 | 7.0 | 14.0 | 0.00 | 0.00 | 0.00 | 28 | 1011.3 |
| 20260503204026 | 73 | 350 | 3.0 | 8.0 | 0.00 | 0.00 | 0.00 | 31 | 1011.3 |
| 20260503203526 | 73 | 328 | 3.0 | 9.0 | 0.00 | 0.00 | 0.00 | 28 | 1011.5 |
| 20260503203039 | 73 | 0 | 3.0 | 10.0 | 0.00 | 0.00 | 0.00 | 26 | 1011.5 |
| 20260503202528 | 73 | 254 | 4.0 | 10.0 | 0.00 | 0.00 | 0.00 | 27 | 1011.6 |
| 20260503202026 | 73 | 344 | 2.0 | 7.0 | 0.00 | 0.00 | 0.00 | 29 | 1011.7 |
| 20260503201544 | 72 | 327 | 2.0 | 10.0 | 0.00 | 0.00 | 0.00 | 27 | 1011.8 |
| 20260503201023 | 72 | 342 | 2.0 | 10.0 | 0.00 | 0.00 | 0.00 | 27 | 1011.7 |
| 20260503200522 | 72 | 347 | 5.0 | 12.0 | 0.00 | 0.00 | 0.00 | 28 | 1011.9 |
| 20260503200038 | 72 | 314 | 4.0 | 12.0 | 0.00 | 0.00 | 0.00 | 28 | 1011.9 |
| 20260503195522 | 71 | 341 | 6.0 | 12.0 | 0.00 | 0.00 | 0.00 | 29 | 1011.9 |
| 20260503195023 | 71 | 341 | 3.0 | 12.0 | 0.00 | 0.00 | 0.00 | 28 | 1011.9 |
| 20260503194545 | 71 | 331 | 5.0 | 11.0 | 0.00 | 0.00 | 0.00 | 30 | 1011.9 |
| 20260503194022 | 71 | 354 | 4.0 | 10.0 | 0.00 | 0.00 | 0.00 | 31 | 1012.1 |
| 20260503193524 | 71 | 63 | 6.0 | 19.0 | 0.00 | 0.00 | 0.00 | 27 | 1012.2 |
| 20260503193044 | 70 | 13 | 4.0 | 19.0 | 0.00 | 0.00 | 0.00 | 29 | 1012.2 |
| 20260503192525 | 70 | 166 | 4.0 | 11.0 | 0.00 | 0.00 | 0.00 | 32 | 1012.4 |
| 20260503192029 | 70 | 232 | 3.0 | 10.0 | 0.00 | 0.00 | 0.00 | 32 | 1012.4 |
| 20260503191539 | 70 | 349 | 3.0 | 10.0 | 0.00 | 0.00 | 0.00 | 34 | 1012.6 |
| 20260503191026 | 69 | 30 | 5.0 | 10.0 | 0.00 | 0.00 | 0.00 | 31 | 1012.5 |
| 20260503190525 | 69 | 66 | 1.0 | 6.0 | 0.00 | 0.00 | 0.00 | 34 | 1012.8 |
| 20260503190043 | 69 | 325 | 2.0 | 6.0 | 0.00 | 0.00 | 0.00 | 36 | 1013.0 |
| 20260503185525 | 69 | 143 | 2.0 | 5.0 | 0.00 | 0.00 | 0.00 | 33 | 1012.9 |
| 20260503185029 | 68 | 154 | 2.0 | 6.0 | 0.00 | 0.00 | 0.00 | 40 | 1013.1 |
| 20260503184542 | 67 | 336 | 1.0 | 6.0 | 0.00 | 0.00 | 0.00 | 36 | 1013.1 |
| 20260503184026 | 67 | 96 | 3.0 | 7.0 | 0.00 | 0.00 | 0.00 | 36 | 1013.2 |
| 20260503183527 | 67 | 22 | 2.0 | 8.0 | 0.00 | 0.00 | 0.00 | 38 | 1013.4 |
| 20260503183043 | 67 | 43 | 2.0 | 10.0 | 0.00 | 0.00 | 0.00 | 37 | 1013.4 |
| 20260503182526 | 67 | 95 | 4.0 | 10.0 | 0.00 | 0.00 | 0.00 | 39 | 1013.5 |
| 20260503182025 | 67 | 51 | 3.0 | 10.0 | 0.00 | 0.00 | 0.00 | 37 | 1013.6 |
| 20260503181556 | 67 | 113 | 4.0 | 8.0 | 0.00 | 0.00 | 0.00 | 36 | 1013.6 |
| 20260503181026 | 67 | 61 | 3.0 | 8.0 | 0.00 | 0.00 | 0.00 | 36 | 1013.7 |
| 20260503180530 | 67 | 0 | 1.0 | 6.0 | 0.00 | 0.00 | 0.00 | 37 | 1013.8 |
| 20260503180047 | 66 | 179 | 2.0 | 7.0 | 0.00 | 0.00 | 0.00 | 37 | 1013.9 |
| 20260503175529 | 66 | 0 | 2.0 | 8.0 | 0.00 | 0.00 | 0.00 | 38 | 1013.9 |
| 20260503175031 | 66 | 82 | 4.0 | 8.0 | 0.00 | 0.00 | 0.00 | 38 | 1014.0 |
| 20260503174538 | 66 | 254 | 3.0 | 7.0 | 0.00 | 0.00 | 0.00 | 37 | 1014.2 |
| 20260503174030 | 66 | 94 | 3.0 | 7.0 | 0.00 | 0.00 | 0.00 | 37 | 1014.1 |
| 20260503173526 | 66 | 27 | 2.0 | 7.0 | 0.00 | 0.00 | 0.00 | 38 | 1014.3 |
| 20260503173042 | 66 | 139 | 1.0 | 5.0 | 0.00 | 0.00 | 0.00 | 42 | 1014.2 |
| 20260503172526 | 65 | 16 | 1.0 | 5.0 | 0.00 | 0.00 | 0.00 | 40 | 1014.3 |
| 20260503172026 | 65 | 82 | 3.0 | 5.0 | 0.00 | 0.00 | 0.00 | 40 | 1014.4 |
| 20260503171539 | 65 | 319 | 2.0 | 7.0 | 0.00 | 0.00 | 0.00 | 45 | 1014.5 |
| 20260503171025 | 64 | 0 | 2.0 | 7.0 | 0.00 | 0.00 | 0.00 | 43 | 1014.5 |
| 20260503170527 | 64 | 12 | 3.0 | 5.0 | 0.00 | 0.00 | 0.00 | 46 | 1014.5 |
| 20260503150525 | 56 | 51 | 1.0 | 4.0 | 0.00 | 0.00 | 0.00 | 56 | 1015.6 |
| 20260503131025 | 47 | 212 | 1.0 | 4.0 | 0.00 | 0.00 | 0.00 | 69 | 1015.6 |
| 20260503130529 | 47 | 0 | 0.0 | 2.0 | 0.00 | 0.00 | 0.00 | 70 | 1015.7 |
| 20260503110526 | 45 | 0 | 0.0 | 2.0 | 0.00 | 0.00 | 0.00 | 70 | 1015.0 |
| 20260503081536 | 48 | 188 | 1.0 | 4.0 | 0.00 | 0.00 | 0.00 | 63 | 1014.9 |
| 20260503081023 | 48 | 131 | 1.0 | 3.0 | 0.00 | 0.00 | 0.00 | 63 | 1014.9 |
| 20260503080524 | 48 | 181 | 1.0 | 3.0 | 0.00 | 0.00 | 0.00 | 64 | 1015.0 |
| 20260503072524 | 50 | 226 | 0.0 | 4.0 | 0.00 | 0.00 | 0.00 | 62 | 1015.1 |
| 20260503072027 | 50 | 209 | 2.0 | 4.0 | 0.00 | 0.00 | 0.00 | 61 | 1015.1 |
| 20260503071537 | 50 | 232 | 1.0 | 3.0 | 0.00 | 0.00 | 0.00 | 61 | 1015.2 |
| 20260503071027 | 50 | 230 | 0.0 | 3.0 | 0.00 | 0.00 | 0.00 | 61 | 1015.1 |
| 20260503070530 | 50 | 245 | 0.0 | 3.0 | 0.00 | 0.00 | 0.00 | 62 | 1015.0 |
| 20260503055023 | 52 | 0 | 0.0 | 0.0 | 0.00 | 0.00 | 0.00 | 55 | 1014.9 |
| 20260503054543 | 52 | 0 | 0.0 | 0.0 | 0.00 | 0.00 | 0.00 | 56 | 1014.9 |
| 20260503054027 | 53 | 0 | 0.0 | 2.0 | 0.00 | 0.00 | 0.00 | 55 | 1014.9 |
| 20260503053527 | 53 | 0 | 0.0 | 3.0 | 0.00 | 0.00 | 0.00 | 54 | 1014.9 |
| 20260503053037 | 54 | 0 | 0.0 | 3.0 | 0.00 | 0.00 | 0.00 | 52 | 1014.9 |
| 20260503052526 | 54 | 253 | 1.0 | 3.0 | 0.00 | 0.00 | 0.00 | 51 | 1015.0 |
| 20260503052028 | 55 | 0 | 1.0 | 4.0 | 0.00 | 0.00 | 0.00 | 51 | 1015.1 |
| 20260503051537 | 55 | 262 | 0.0 | 4.0 | 0.00 | 0.00 | 0.00 | 51 | 1015.0 |
| 20260503051027 | 55 | 262 | 1.0 | 4.0 | 0.00 | 0.00 | 0.00 | 51 | 1014.9 |
| 20260503050523 | 55 | 0 | 0.0 | 4.0 | 0.00 | 0.00 | 0.00 | 51 | 1014.9 |
| 20260503050038 | 55 | 245 | 1.0 | 4.0 | 0.00 | 0.00 | 0.00 | 51 | 1014.9 |
| 20260503045526 | 55 | 259 | 1.0 | 3.0 | 0.00 | 0.00 | 0.00 | 51 | 1014.8 |
| 20260503045027 | 56 | 0 | 0.0 | 3.0 | 0.00 | 0.00 | 0.00 | 51 | 1014.7 |
| 20260503044552 | 56 | 0 | 0.0 | 3.0 | 0.00 | 0.00 | 0.00 | 51 | 1014.7 |
| 20260503044027 | 56 | 359 | 1.0 | 3.0 | 0.00 | 0.00 | 0.00 | 51 | 1014.7 |
| 20260503043527 | 56 | 13 | 1.0 | 3.0 | 0.00 | 0.00 | 0.00 | 50 | 1014.8 |
| 20260503043043 | 56 | 22 | 0.0 | 3.0 | 0.00 | 0.00 | 0.00 | 49 | 1014.9 |
| 20260503042526 | 56 | 0 | 1.0 | 3.0 | 0.00 | 0.00 | 0.00 | 48 | 1014.8 |
| 20260503042025 | 57 | 23 | 1.0 | 3.0 | 0.00 | 0.00 | 0.00 | 48 | 1014.8 |
| 20260503041537 | 57 | 0 | 1.0 | 4.0 | 0.00 | 0.00 | 0.00 | 47 | 1014.8 |
| 20260503041024 | 57 | 0 | 1.0 | 4.0 | 0.00 | 0.00 | 0.00 | 47 | 1014.8 |
| 20260503040525 | 56 | 49 | 2.0 | 4.0 | 0.00 | 0.00 | 0.00 | 47 | 1014.8 |
| 20260503040049 | 57 | 22 | 1.0 | 4.0 | 0.00 | 0.00 | 0.00 | 47 | 1014.7 |
| 20260503035525 | 57 | 17 | 1.0 | 4.0 | 0.00 | 0.00 | 0.00 | 46 | 1014.7 |
| 20260503035025 | 57 | 15 | 2.0 | 4.0 | 0.00 | 0.00 | 0.00 | 46 | 1014.6 |
| 20260503034539 | 57 | 21 | 0.0 | 4.0 | 0.00 | 0.00 | 0.00 | 46 | 1014.6 |
| 20260503034028 | 57 | 70 | 2.0 | 4.0 | 0.00 | 0.00 | 0.00 | 45 | 1014.4 |
| 20260503033526 | 58 | 103 | 1.0 | 3.0 | 0.00 | 0.00 | 0.00 | 44 | 1014.4 |
| 20260503033042 | 59 | 61 | 0.0 | 3.0 | 0.00 | 0.00 | 0.00 | 44 | 1014.5 |
| 20260503032525 | 59 | 60 | 1.0 | 7.0 | 0.00 | 0.00 | 0.00 | 42 | 1014.6 |
| 20260503032025 | 60 | 63 | 3.0 | 7.0 | 0.00 | 0.00 | 0.00 | 41 | 1014.5 |
| 20260503031536 | 60 | 63 | 2.0 | 8.0 | 0.00 | 0.00 | 0.00 | 41 | 1014.5 |
| 20260503031025 | 60 | 53 | 2.0 | 10.0 | 0.00 | 0.00 | 0.00 | 41 | 1014.3 |
| 20260503030525 | 61 | 18 | 5.0 | 10.0 | 0.00 | 0.00 | 0.00 | 40 | 1014.2 |
| 20260503030040 | 60 | 50 | 4.0 | 10.0 | 0.00 | 0.00 | 0.00 | 40 | 1014.2 |
| 20260503025525 | 61 | 29 | 5.0 | 11.0 | 0.00 | 0.00 | 0.00 | 39 | 1014.2 |
| 20260503025025 | 61 | 54 | 6.0 | 11.0 | 0.00 | 0.00 | 0.00 | 39 | 1014.0 |
| 20260503024540 | 61 | 54 | 7.0 | 13.0 | 0.00 | 0.00 | 0.00 | 39 | 1014.0 |
| 20260503024025 | 61 | 53 | 5.0 | 13.0 | 0.00 | 0.00 | 0.00 | 39 | 1014.0 |
| 20260503023525 | 61 | 1 | 5.0 | 11.0 | 0.00 | 0.00 | 0.00 | 40 | 1014.0 |
| 20260503023036 | 62 | 7 | 5.0 | 11.0 | 0.00 | 0.00 | 0.00 | 39 | 1014.0 |
| 20260503022524 | 62 | 13 | 4.0 | 14.0 | 0.00 | 0.00 | 0.00 | 39 | 1013.7 |
| 20260503022028 | 62 | 69 | 5.0 | 14.0 | 0.00 | 0.00 | 0.00 | 38 | 1013.6 |
| 20260503021538 | 62 | 35 | 6.0 | 13.0 | 0.00 | 0.00 | 0.00 | 38 | 1013.5 |
| 20260503021025 | 62 | 22 | 4.0 | 13.0 | 0.00 | 0.00 | 0.00 | 38 | 1013.5 |
| 20260503020523 | 63 | 30 | 4.0 | 9.0 | 0.00 | 0.00 | 0.00 | 38 | 1013.5 |
| 20260503020036 | 63 | 31 | 3.0 | 9.0 | 0.00 | 0.00 | 0.00 | 38 | 1013.4 |
| 20260503015528 | 63 | 101 | 5.0 | 10.0 | 0.00 | 0.00 | 0.00 | 37 | 1013.6 |
| 20260503015025 | 64 | 54 | 6.0 | 10.0 | 0.00 | 0.00 | 0.00 | 37 | 1013.5 |
| 20260503014539 | 64 | 12 | 4.0 | 12.0 | 0.00 | 0.00 | 0.00 | 37 | 1013.3 |
| 20260503014025 | 64 | 32 | 5.0 | 12.0 | 0.00 | 0.00 | 0.00 | 37 | 1013.3 |
| 20260503013525 | 64 | 30 | 6.0 | 12.0 | 0.00 | 0.00 | 0.00 | 36 | 1013.3 |
| 20260503013038 | 65 | 28 | 5.0 | 12.0 | 0.00 | 0.00 | 0.00 | 36 | 1013.2 |
| 20260503012525 | 65 | 18 | 5.0 | 12.0 | 0.00 | 0.00 | 0.00 | 36 | 1013.3 |
| 20260503012026 | 65 | 56 | 5.0 | 11.0 | 0.00 | 0.00 | 0.00 | 35 | 1013.3 |
| 20260503011537 | 66 | 13 | 6.0 | 15.0 | 0.00 | 0.00 | 0.00 | 34 | 1013.1 |
| 20260503011025 | 67 | 53 | 5.0 | 15.0 | 0.00 | 0.00 | 0.00 | 34 | 1013.3 |
| 20260503010526 | 67 | 42 | 7.0 | 15.0 | 0.00 | 0.00 | 0.00 | 33 | 1013.1 |
| 20260503010037 | 68 | 17 | 8.0 | 14.0 | 0.00 | 0.00 | 0.00 | 32 | 1013.1 |
| 20260503005527 | 68 | 48 | 7.0 | 15.0 | 0.00 | 0.00 | 0.00 | 32 | 1013.2 |
| 20260503005024 | 68 | 42 | 8.0 | 15.0 | 0.00 | 0.00 | 0.00 | 32 | 1013.1 |
| 20260503004536 | 68 | 51 | 7.0 | 15.0 | 0.00 | 0.00 | 0.00 | 31 | 1013.2 |
| 20260503004030 | 68 | 39 | 8.0 | 15.0 | 0.00 | 0.00 | 0.00 | 31 | 1013.2 |
| 20260503003526 | 69 | 27 | 7.0 | 18.0 | 0.00 | 0.00 | 0.00 | 31 | 1013.1 |
| 20260503003040 | 69 | 61 | 7.0 | 18.0 | 0.00 | 0.00 | 0.00 | 31 | 1013.3 |
| 20260503002530 | 69 | 52 | 9.0 | 18.0 | 0.00 | 0.00 | 0.00 | 30 | 1013.2 |
| 20260503002029 | 69 | 23 | 9.0 | 15.0 | 0.00 | 0.00 | 0.00 | 31 | 1013.3 |
| 20260503001543 | 70 | 35 | 8.0 | 15.0 | 0.00 | 0.00 | 0.00 | 30 | 1013.2 |
| 20260503001025 | 71 | 112 | 8.0 | 15.0 | 0.00 | 0.00 | 0.00 | 29 | 1013.3 |
| 20260503000525 | 71 | 34 | 8.0 | 15.0 | 0.00 | 0.00 | 0.00 | 28 | 1013.3 |
| 20260503000036 | 73 | 30 | 8.0 | 14.0 | 0.00 | 0.00 | 0.00 | 26 | 1013.3 |
| 20260502235525 | 74 | 1 | 2.0 | 5.0 | 0.00 | 0.00 | 0.00 | 19 | 1013.2 |
| 20260502235025 | 73 | 0 | 1.0 | 4.0 | 0.00 | 0.00 | 0.00 | 19 | 1013.3 |
| 20260502234546 | 73 | 108 | 1.0 | 5.0 | 0.00 | 0.00 | 0.00 | 18 | 1013.3 |
| 20260502234027 | 72 | 93 | 2.0 | 5.0 | 0.00 | 0.00 | 0.00 | 18 | 1013.3 |
| 20260502233530 | 72 | 98 | 2.0 | 5.0 | 0.00 | 0.00 | 0.00 | 18 | 1013.3 |
| 20260502233037 | 73 | 0 | 2.0 | 4.0 | 0.00 | 0.00 | 0.00 | 18 | 1013.4 |
| 20260502232528 | 73 | 28 | 0.0 | 4.0 | 0.00 | 0.00 | 0.00 | 19 | 1013.5 |
| 20260502232026 | 73 | 0 | 1.0 | 4.0 | 0.00 | 0.00 | 0.00 | 18 | 1013.5 |
| 20260502231541 | 73 | 333 | 1.0 | 8.0 | 0.00 | 0.00 | 0.00 | 20 | 1013.6 |
| 20260502231030 | 73 | 347 | 2.0 | 8.0 | 0.00 | 0.00 | 0.00 | 19 | 1013.6 |
| 20260502230526 | 74 | 347 | 2.0 | 6.0 | 0.00 | 0.00 | 0.00 | 19 | 1013.5 |
| 20260502230043 | 74 | 0 | 1.0 | 5.0 | 0.00 | 0.00 | 0.00 | 18 | 1013.6 |
| 20260502225527 | 74 | 74 | 3.0 | 5.0 | 0.00 | 0.00 | 0.00 | 17 | 1013.7 |
| 20260502225027 | 74 | 131 | 1.0 | 7.0 | 0.00 | 0.00 | 0.00 | 18 | 1013.8 |
| 20260502224539 | 73 | 181 | 4.0 | 7.0 | 0.00 | 0.00 | 0.00 | 18 | 1013.8 |